Tracking 19475 objects as of 18-Jan-2019
HD Live streaming from Space Station
objects crossing your sky now

IRS 1B

Track IRS 1B now!
10-day predictions
IRS 1B is classified as:


NORAD ID: 21688
Int'l Code: 1991-061A
Perigee: 892.5 km
Apogee: 927.9 km
Inclination: 99.1 °
Period: 103.1 minutes
Semi major axis: 7281 km
RCS: 4.2636 m2 (large)
Launch date: August 29, 1991
Source: India (IND)
Launch site: TYURATAM MISSILE AND SPACE COMPLEX (TTMTR)
aabbcc
Your satellite tracking list
Your tracking list is empty




NASA's NSSDC Master Catalog

Two Line Element Set (TLE):
1 21688U 91061A   19017.84646578  .00000174  00000-0  15500-3 0  9994
2 21688  99.1011 323.3809 0024292 186.1336 233.1851 13.97326693290590
Source of the keplerian elements: AFSPC